Time,TemperatureF,DewpointF,PressureIn,WindDirection,WindDirectionDegrees,WindSpeedMPH,WindSpeedGustMPH,Humidity,HourlyPrecipIn,Conditions,Clouds,dailyrainin,SoftwareType,DateUTC
2013-02-11 00:02:00,46.2,28.1,30.03,North,9,0.0,0.0,49,0.00,,,0.00,WeatherTracker,2013-02-11 08:02:00,
2013-02-11 00:07:00,46.2,28.1,30.02,North,9,0.0,0.0,49,0.00,,,0.00,WeatherTracker,2013-02-11 08:07:00,
2013-02-11 00:12:00,46.1,28.5,30.03,North,9,0.0,0.0,50,0.00,,,0.00,WeatherTracker,2013-02-11 08:12:00,
2013-02-11 00:17:00,45.9,29.3,30.03,North,9,0.0,0.0,52,0.00,,,0.00,WeatherTracker,2013-02-11 08:17:00,
2013-02-11 00:22:00,45.6,28.5,30.03,North,9,0.0,0.0,51,0.00,,,0.00,WeatherTracker,2013-02-11 08:22:00,
2013-02-11 00:27:00,45.3,28.7,30.03,North,9,0.0,0.0,52,0.00,,,0.00,WeatherTracker,2013-02-11 08:27:00,
2013-02-11 00:32:00,45.0,28.4,30.03,North,9,1.0,0.0,52,0.00,,,0.00,WeatherTracker,2013-02-11 08:32:00,
2013-02-11 00:37:00,44.8,27.8,30.03,North,9,0.0,0.0,51,0.00,,,0.00,WeatherTracker,2013-02-11 08:37:00,
2013-02-11 00:42:00,44.6,27.6,30.03,North,9,0.0,0.0,51,0.00,,,0.00,WeatherTracker,2013-02-11 08:42:00,
2013-02-11 00:47:00,44.5,27.5,30.03,North,9,0.0,0.0,51,0.00,,,0.00,WeatherTracker,2013-02-11 08:47:00,
2013-02-11 00:52:00,44.3,28.3,30.04,North,9,0.0,0.0,53,0.00,,,0.00,WeatherTracker,2013-02-11 08:52:00,
2013-02-11 00:57:00,44.1,28.5,30.04,North,9,0.0,0.0,54,0.00,,,0.00,WeatherTracker,2013-02-11 08:57:00,
2013-02-11 01:02:00,43.8,28.3,30.04,North,9,0.0,0.0,54,0.00,,,0.00,WeatherTracker,2013-02-11 09:02:00,
2013-02-11 01:07:00,43.5,27.5,30.03,North,9,0.0,0.0,53,0.00,,,0.00,WeatherTracker,2013-02-11 09:07:00,
2013-02-11 01:12:00,43.3,27.8,30.03,North,9,0.0,0.0,54,0.00,,,0.00,WeatherTracker,2013-02-11 09:12:00,
2013-02-11 01:17:00,43.0,28.0,30.03,North,9,0.0,0.0,55,0.00,,,0.00,WeatherTracker,2013-02-11 09:17:00,
2013-02-11 01:22:00,42.8,26.9,30.04,North,9,0.0,0.0,53,0.00,,,0.00,WeatherTracker,2013-02-11 09:22:00,
2013-02-11 01:27:00,42.7,25.8,30.04,North,9,0.0,0.0,51,0.00,,,0.00,WeatherTracker,2013-02-11 09:27:00,
2013-02-11 01:32:00,42.8,26.4,30.04,North,9,0.0,0.0,52,0.00,,,0.00,WeatherTracker,2013-02-11 09:32:00,
2013-02-11 01:37:00,43.0,26.1,30.04,North,9,0.0,0.0,51,0.00,,,0.00,WeatherTracker,2013-02-11 09:37:00,
2013-02-11 01:42:00,43.0,25.6,30.04,North,9,0.0,0.0,50,0.00,,,0.00,WeatherTracker,2013-02-11 09:42:00,
2013-02-11 01:47:00,43.1,25.3,30.04,North,9,1.0,0.0,49,0.00,,,0.00,WeatherTracker,2013-02-11 09:47:00,
2013-02-11 01:52:00,43.2,26.3,30.04,NE,37,2.0,0.0,51,0.00,,,0.00,WeatherTracker,2013-02-11 09:52:00,
2013-02-11 01:58:00,43.3,26.4,30.04,NE,37,0.0,0.0,51,0.00,,,0.00,WeatherTracker,2013-02-11 09:58:00,
2013-02-11 02:03:00,43.2,26.8,30.04,NE,37,0.0,0.0,52,0.00,,,0.00,WeatherTracker,2013-02-11 10:03:00,
2013-02-11 02:08:00,43.3,25.9,30.04,NNE,29,1.0,0.0,50,0.00,,,0.00,WeatherTracker,2013-02-11 10:08:00,
2013-02-11 02:13:00,43.3,26.9,30.04,NNE,29,0.0,0.0,52,0.00,,,0.00,WeatherTracker,2013-02-11 10:13:00,
2013-02-11 02:18:00,43.1,27.1,30.04,NNE,29,0.0,0.0,53,0.00,,,0.00,WeatherTracker,2013-02-11 10:18:00,
2013-02-11 02:23:00,42.8,27.3,30.05,NNE,29,0.0,0.0,54,0.00,,,0.00,WeatherTracker,2013-02-11 10:23:00,
2013-02-11 02:28:00,42.4,27.4,30.04,NNE,29,0.0,0.0,55,0.00,,,0.00,WeatherTracker,2013-02-11 10:28:00,
2013-02-11 02:33:00,42.2,27.2,30.04,NNE,29,0.0,0.0,55,0.00,,,0.00,WeatherTracker,2013-02-11 10:33:00,
2013-02-11 02:38:00,42.0,26.6,30.04,NNE,29,0.0,0.0,54,0.00,,,0.00,WeatherTracker,2013-02-11 10:38:00,
2013-02-11 02:43:00,42.0,26.1,30.05,NNE,29,1.0,0.0,53,0.00,,,0.00,WeatherTracker,2013-02-11 10:43:00,
2013-02-11 02:48:00,42.1,25.8,30.05,NNE,29,0.0,0.0,52,0.00,,,0.00,WeatherTracker,2013-02-11 10:48:00,
2013-02-11 02:53:00,42.2,26.3,30.05,NNE,17,1.0,0.0,53,0.00,,,0.00,WeatherTracker,2013-02-11 10:53:00,
2013-02-11 02:58:00,42.9,26.0,30.04,NNE,25,0.0,0.0,51,0.00,,,0.00,WeatherTracker,2013-02-11 10:58:00,
2013-02-11 03:03:00,44.0,26.1,30.04,North,5,1.0,0.0,49,0.00,,,0.00,WeatherTracker,2013-02-11 11:03:00,
2013-02-11 03:08:00,44.7,26.2,30.04,NNE,24,2.0,0.0,48,0.00,,,0.00,WeatherTracker,2013-02-11 11:08:00,
2013-02-11 03:13:00,45.3,26.3,30.04,NNE,28,0.0,0.0,47,0.00,,,0.00,WeatherTracker,2013-02-11 11:13:00,
2013-02-11 03:18:00,45.7,26.6,30.05,NNE,17,1.0,0.0,47,0.00,,,0.00,WeatherTracker,2013-02-11 11:18:00,
2013-02-11 03:23:00,45.8,26.7,30.05,NNE,17,1.0,0.0,47,0.00,,,0.00,WeatherTracker,2013-02-11 11:23:00,
2013-02-11 03:28:00,45.8,26.2,30.04,NNE,17,0.0,0.0,46,0.00,,,0.00,WeatherTracker,2013-02-11 11:28:00,
2013-02-11 03:33:00,45.9,26.3,30.04,NNE,17,1.0,0.0,46,0.00,,,0.00,WeatherTracker,2013-02-11 11:33:00,
2013-02-11 03:38:00,46.1,25.4,30.04,NNE,21,4.0,0.0,44,0.00,,,0.00,WeatherTracker,2013-02-11 11:38:00,
2013-02-11 03:43:00,46.7,24.8,30.05,NNE,23,0.0,0.0,42,0.00,,,0.00,WeatherTracker,2013-02-11 11:43:00,
2013-02-11 03:48:00,47.0,25.1,30.04,NNE,15,0.0,0.0,42,0.00,,,0.00,WeatherTracker,2013-02-11 11:48:00,
2013-02-11 03:53:00,47.4,25.5,30.05,NE,34,8.0,0.0,42,0.00,,,0.00,WeatherTracker,2013-02-11 11:53:00,
2013-02-11 03:58:00,48.3,24.5,30.04,NNE,26,5.0,0.0,39,0.00,,,0.00,WeatherTracker,2013-02-11 11:58:00,
2013-02-11 04:03:00,49.3,24.1,30.04,NNE,19,3.0,0.0,37,0.00,,,0.00,WeatherTracker,2013-02-11 12:03:00,
2013-02-11 04:08:00,50.1,24.2,30.05,NE,56,2.0,0.0,36,0.00,,,0.00,WeatherTracker,2013-02-11 12:08:00,
2013-02-11 04:13:00,50.5,23.9,30.04,NNE,32,2.0,0.0,35,0.00,,,0.00,WeatherTracker,2013-02-11 12:13:00,
2013-02-11 04:18:00,50.8,23.5,30.05,NNE,21,8.0,0.0,34,0.00,,,0.00,WeatherTracker,2013-02-11 12:18:00,
2013-02-11 04:23:00,51.3,23.9,30.05,NE,38,2.0,0.0,34,0.00,,,0.00,WeatherTracker,2013-02-11 12:23:00,
2013-02-11 04:28:00,51.5,23.4,30.05,NNE,29,2.0,0.0,33,0.00,,,0.00,WeatherTracker,2013-02-11 12:28:00,
2013-02-11 04:33:00,51.6,23.4,30.05,NNE,13,4.0,0.0,33,0.00,,,0.00,WeatherTracker,2013-02-11 12:33:00,
2013-02-11 04:38:00,51.8,23.6,30.05,NE,34,4.0,0.0,33,0.00,,,0.00,WeatherTracker,2013-02-11 12:38:00,
2013-02-11 04:43:00,51.9,23.7,30.05,NE,39,2.0,0.0,33,0.00,,,0.00,WeatherTracker,2013-02-11 12:43:00,
2013-02-11 04:48:00,51.9,23.7,30.06,NNE,14,2.0,0.0,33,0.00,,,0.00,WeatherTracker,2013-02-11 12:48:00,
2013-02-11 04:53:00,51.8,23.6,30.06,NE,51,0.0,0.0,33,0.00,,,0.00,WeatherTracker,2013-02-11 12:53:00,
2013-02-11 04:59:00,51.7,24.2,30.06,NNE,22,3.0,0.0,34,0.00,,,0.00,WeatherTracker,2013-02-11 12:59:00,
2013-02-11 05:04:00,51.7,23.5,30.06,NE,37,5.0,0.0,33,0.00,,,0.00,WeatherTracker,2013-02-11 13:04:00,
2013-02-11 05:09:00,51.8,23.6,30.06,NNE,32,4.0,0.0,33,0.00,,,0.00,WeatherTracker,2013-02-11 13:09:00,
2013-02-11 05:14:00,51.9,23.7,30.06,NNE,30,1.0,0.0,33,0.00,,,0.00,WeatherTracker,2013-02-11 13:14:00,
2013-02-11 05:19:00,51.8,23.6,30.07,NNE,13,0.0,0.0,33,0.00,,,0.00,WeatherTracker,2013-02-11 13:19:00,
2013-02-11 05:24:00,51.7,23.5,30.07,NNE,31,2.0,0.0,33,0.00,,,0.00,WeatherTracker,2013-02-11 13:24:00,
2013-02-11 05:29:00,51.4,23.3,30.07,NNE,25,1.0,0.0,33,0.00,,,0.00,WeatherTracker,2013-02-11 13:29:00,
2013-02-11 05:34:00,51.1,24.4,30.07,NNE,25,0.0,0.0,35,0.00,,,0.00,WeatherTracker,2013-02-11 13:34:00,
2013-02-11 05:39:00,50.6,24.0,30.07,NNE,25,0.0,0.0,35,0.00,,,0.00,WeatherTracker,2013-02-11 13:39:00,
2013-02-11 05:44:00,50.1,24.2,30.07,NNE,25,1.0,0.0,36,0.00,,,0.00,WeatherTracker,2013-02-11 13:44:00,
2013-02-11 05:49:00,49.5,25.0,30.07,NNE,25,0.0,0.0,38,0.00,,,0.00,WeatherTracker,2013-02-11 13:49:00,
2013-02-11 05:54:00,48.9,25.0,30.07,NNE,25,0.0,0.0,39,0.00,,,0.00,WeatherTracker,2013-02-11 13:54:00,
2013-02-11 05:59:00,48.3,24.5,30.08,NNE,25,0.0,0.0,39,0.00,,,0.00,WeatherTracker,2013-02-11 13:59:00,
2013-02-11 06:04:00,47.6,25.1,30.08,NNE,25,0.0,0.0,41,0.00,,,0.00,WeatherTracker,2013-02-11 14:04:00,
2013-02-11 06:09:00,46.9,25.0,30.08,NNE,25,1.0,0.0,42,0.00,,,0.00,WeatherTracker,2013-02-11 14:09:00,
2013-02-11 06:14:00,46.4,24.6,30.08,NNE,25,0.0,0.0,42,0.00,,,0.00,WeatherTracker,2013-02-11 14:14:00,
2013-02-11 06:19:00,46.2,25.0,30.08,NNE,21,2.0,0.0,43,0.00,,,0.00,WeatherTracker,2013-02-11 14:19:00,
2013-02-11 06:24:00,46.4,25.7,30.08,North,355,0.0,0.0,44,0.00,,,0.00,WeatherTracker,2013-02-11 14:24:00,
2013-02-11 06:29:00,46.7,25.4,30.08,North,360,2.0,0.0,43,0.00,,,0.00,WeatherTracker,2013-02-11 14:29:00,
2013-02-11 06:34:00,47.0,25.7,30.08,NNE,18,2.0,0.0,43,0.00,,,0.00,WeatherTracker,2013-02-11 14:34:00,
2013-02-11 06:39:00,47.2,25.9,30.09,North,11,1.0,0.0,43,0.00,,,0.00,WeatherTracker,2013-02-11 14:39:00,
2013-02-11 06:44:00,47.3,25.9,30.09,NNE,12,1.0,0.0,43,0.00,,,0.00,WeatherTracker,2013-02-11 14:44:00,
2013-02-11 06:49:00,47.3,26.5,30.09,North,5,0.0,0.0,44,0.00,,,0.00,WeatherTracker,2013-02-11 14:49:00,
2013-02-11 06:54:00,47.1,26.9,30.09,North,5,0.0,0.0,45,0.00,,,0.00,WeatherTracker,2013-02-11 14:54:00,
2013-02-11 06:59:00,46.9,26.1,30.10,NE,35,1.0,0.0,44,0.00,,,0.00,WeatherTracker,2013-02-11 14:59:00,
2013-02-11 07:04:00,46.8,26.6,30.09,NNE,12,3.0,0.0,45,0.00,,,0.00,WeatherTracker,2013-02-11 15:04:00,
2013-02-11 07:09:00,46.7,26.0,30.09,NNE,20,0.0,0.0,44,0.00,,,0.00,WeatherTracker,2013-02-11 15:09:00,
2013-02-11 07:14:00,46.6,26.4,30.10,NNE,18,1.0,0.0,45,0.00,,,0.00,WeatherTracker,2013-02-11 15:14:00,
2013-02-11 07:20:00,46.4,26.8,30.10,NNE,18,1.0,0.0,46,0.00,,,0.00,WeatherTracker,2013-02-11 15:20:00,
2013-02-11 07:25:00,46.0,29.4,30.10,SE,130,2.0,0.0,52,0.00,,,0.00,WeatherTracker,2013-02-11 15:25:00,
2013-02-11 07:30:00,45.3,31.8,30.11,SSE,159,4.0,0.0,59,0.00,,,0.00,WeatherTracker,2013-02-11 15:30:00,
2013-02-11 07:35:00,44.7,34.0,30.11,SE,146,1.0,0.0,66,0.00,,,0.00,WeatherTracker,2013-02-11 15:35:00,
2013-02-11 07:40:00,44.2,34.3,30.11,SE,130,0.0,0.0,68,0.00,,,0.00,WeatherTracker,2013-02-11 15:40:00,
2013-02-11 07:45:00,43.8,33.2,30.11,SSE,155,1.0,0.0,66,0.00,,,0.00,WeatherTracker,2013-02-11 15:45:00,
2013-02-11 07:50:00,43.5,31.4,30.12,SSE,155,2.0,0.0,62,0.00,,,0.00,WeatherTracker,2013-02-11 15:50:00,
2013-02-11 07:55:00,43.3,29.9,30.12,SE,138,0.0,0.0,59,0.00,,,0.00,WeatherTracker,2013-02-11 15:55:00,
2013-02-11 08:00:00,43.2,29.4,30.12,SE,138,0.0,0.0,58,0.00,,,0.00,WeatherTracker,2013-02-11 16:00:00,
2013-02-11 08:05:00,43.2,29.4,30.12,SE,140,3.0,0.0,58,0.00,,,0.00,WeatherTracker,2013-02-11 16:05:00,
2013-02-11 08:10:00,43.4,29.6,30.13,ESE,116,0.0,0.0,58,0.00,,,0.00,WeatherTracker,2013-02-11 16:10:00,
2013-02-11 08:15:00,43.8,29.6,30.14,ESE,116,0.0,0.0,57,0.00,,,0.00,WeatherTracker,2013-02-11 16:15:00,
2013-02-11 08:20:00,44.4,30.1,30.14,ESE,116,0.0,0.0,57,0.00,,,0.00,WeatherTracker,2013-02-11 16:20:00,
2013-02-11 08:25:00,45.3,30.1,30.14,SE,138,3.0,0.0,55,0.00,,,0.00,WeatherTracker,2013-02-11 16:25:00,
2013-02-11 08:30:00,46.0,30.3,30.14,SE,138,1.0,0.0,54,0.00,,,0.00,WeatherTracker,2013-02-11 16:30:00,
2013-02-11 08:35:00,46.6,30.9,30.14,SE,138,0.0,0.0,54,0.00,,,0.00,WeatherTracker,2013-02-11 16:35:00,
2013-02-11 08:40:00,47.1,30.9,30.14,SE,138,1.0,0.0,53,0.00,,,0.00,WeatherTracker,2013-02-11 16:40:00,
2013-02-11 08:45:00,47.6,30.9,30.14,SE,138,0.0,0.0,52,0.00,,,0.00,WeatherTracker,2013-02-11 16:45:00,
2013-02-11 08:50:00,48.2,31.4,30.14,SE,138,1.0,0.0,52,0.00,,,0.00,WeatherTracker,2013-02-11 16:50:00,
2013-02-11 08:55:00,48.7,31.4,30.14,SE,138,0.0,0.0,51,0.00,,,0.00,WeatherTracker,2013-02-11 16:55:00,
2013-02-11 09:00:00,49.1,31.8,30.15,SE,138,1.0,0.0,51,0.00,,,0.00,WeatherTracker,2013-02-11 17:00:00,
2013-02-11 09:06:00,49.4,32.0,30.15,ESE,114,1.0,0.0,51,0.00,,,0.00,WeatherTracker,2013-02-11 17:06:00,
2013-02-11 09:11:00,49.6,31.7,30.15,ESE,113,3.0,0.0,50,0.00,,,0.00,WeatherTracker,2013-02-11 17:11:00,
2013-02-11 09:16:00,49.7,31.8,30.15,ESE,121,1.0,0.0,50,0.00,,,0.00,WeatherTracker,2013-02-11 17:16:00,
2013-02-11 09:21:00,50.1,31.7,30.15,ESE,113,0.0,0.0,49,0.00,,,0.00,WeatherTracker,2013-02-11 17:21:00,
2013-02-11 09:26:00,50.5,32.1,30.15,ESE,115,2.0,0.0,49,0.00,,,0.00,WeatherTracker,2013-02-11 17:26:00,
2013-02-11 09:31:00,50.9,31.9,30.15,ESE,115,1.0,0.0,48,0.00,,,0.00,WeatherTracker,2013-02-11 17:31:00,
2013-02-11 09:36:00,51.4,31.9,30.15,ESE,115,0.0,0.0,47,0.00,,,0.00,WeatherTracker,2013-02-11 17:36:00,
2013-02-11 09:41:00,51.9,32.3,30.15,SE,134,0.0,0.0,47,0.00,,,0.00,WeatherTracker,2013-02-11 17:41:00,
2013-02-11 09:46:00,52.3,31.6,30.15,SE,134,1.0,0.0,45,0.00,,,0.00,WeatherTracker,2013-02-11 17:46:00,
2013-02-11 09:51:00,52.7,32.5,30.15,SE,137,0.0,0.0,46,0.00,,,0.00,WeatherTracker,2013-02-11 17:51:00,
2013-02-11 09:56:00,53.2,33.0,30.16,SE,137,0.0,0.0,46,0.00,,,0.00,WeatherTracker,2013-02-11 17:56:00,
2013-02-11 10:01:00,53.7,32.3,30.16,South,184,0.0,0.0,44,0.00,,,0.00,WeatherTracker,2013-02-11 18:01:00,
2013-02-11 10:06:00,54.2,32.2,30.16,South,182,1.0,0.0,43,0.00,,,0.00,WeatherTracker,2013-02-11 18:06:00,
2013-02-11 10:11:00,54.7,33.2,30.16,South,190,0.0,0.0,44,0.00,,,0.00,WeatherTracker,2013-02-11 18:11:00,
2013-02-11 10:16:00,55.3,33.8,30.16,SE,130,2.0,0.0,44,0.00,,,0.00,WeatherTracker,2013-02-11 18:16:00,
2013-02-11 10:21:00,55.9,33.7,30.16,SSE,155,1.0,0.0,43,0.00,,,0.00,WeatherTracker,2013-02-11 18:21:00,
2013-02-11 10:26:00,56.5,33.1,30.16,SSW,198,1.0,0.0,41,0.00,,,0.00,WeatherTracker,2013-02-11 18:26:00,
2013-02-11 10:31:00,56.9,33.4,30.16,SSE,165,0.0,0.0,41,0.00,,,0.00,WeatherTracker,2013-02-11 18:31:00,
2013-02-11 10:36:00,57.5,34.0,30.16,South,182,1.0,0.0,41,0.00,,,0.00,WeatherTracker,2013-02-11 18:36:00,
2013-02-11 10:41:00,57.9,33.7,30.16,South,179,2.0,0.0,40,0.00,,,0.00,WeatherTracker,2013-02-11 18:41:00,
2013-02-11 10:46:00,58.3,32.8,30.16,SW,223,2.0,0.0,38,0.00,,,0.00,WeatherTracker,2013-02-11 18:46:00,
2013-02-11 10:51:00,58.9,32.7,30.16,SSW,207,2.0,0.0,37,0.00,,,0.00,WeatherTracker,2013-02-11 18:51:00,
2013-02-11 10:56:00,59.3,30.9,30.16,South,173,1.0,0.0,34,0.00,,,0.00,WeatherTracker,2013-02-11 18:56:00,
2013-02-11 11:02:00,59.6,31.2,30.16,NW,321,4.0,0.0,34,0.00,,,0.00,WeatherTracker,2013-02-11 19:02:00,
2013-02-11 11:07:00,59.8,31.4,30.15,NW,322,0.0,0.0,34,0.00,,,0.00,WeatherTracker,2013-02-11 19:07:00,
2013-02-11 11:12:00,60.1,31.6,30.15,WNW,296,1.0,0.0,34,0.00,,,0.00,WeatherTracker,2013-02-11 19:12:00,
2013-02-11 11:17:00,60.7,30.7,30.15,WNW,284,1.0,0.0,32,0.00,,,0.00,WeatherTracker,2013-02-11 19:17:00,
2013-02-11 11:22:00,61.2,29.5,30.15,WNW,282,4.0,0.0,30,0.00,,,0.00,WeatherTracker,2013-02-11 19:22:00,
2013-02-11 11:27:00,61.4,29.7,30.15,WNW,298,2.0,0.0,30,0.00,,,0.00,WeatherTracker,2013-02-11 19:27:00,
2013-02-11 11:32:00,61.7,30.8,30.14,South,187,2.0,0.0,31,0.00,,,0.00,WeatherTracker,2013-02-11 19:32:00,
2013-02-11 11:37:00,62.0,30.2,30.14,SW,232,1.0,0.0,30,0.00,,,0.00,WeatherTracker,2013-02-11 19:37:00,
2013-02-11 11:42:00,62.6,29.0,30.14,WNW,282,1.0,0.0,28,0.00,,,0.00,WeatherTracker,2013-02-11 19:42:00,
2013-02-11 11:47:00,62.8,29.2,30.14,North,355,1.0,0.0,28,0.00,,,0.00,WeatherTracker,2013-02-11 19:47:00,
2013-02-11 11:52:00,63.1,31.2,30.13,SW,229,1.0,0.0,30,0.00,,,0.00,WeatherTracker,2013-02-11 19:52:00,
2013-02-11 11:57:00,63.6,29.0,30.13,North,5,3.0,0.0,27,0.00,,,0.00,WeatherTracker,2013-02-11 19:57:00,
2013-02-11 12:02:00,63.8,27.3,30.13,North,355,5.0,0.0,25,0.00,,,0.00,WeatherTracker,2013-02-11 20:02:00,
2013-02-11 12:07:00,63.8,27.3,30.13,NE,37,5.0,0.0,25,0.00,,,0.00,WeatherTracker,2013-02-11 20:07:00,
2013-02-11 12:12:00,64.2,27.6,30.12,NNE,32,6.0,0.0,25,0.00,,,0.00,WeatherTracker,2013-02-11 20:12:00,
2013-02-11 12:17:00,64.4,26.8,30.12,North,350,3.0,0.0,24,0.00,,,0.00,WeatherTracker,2013-02-11 20:17:00,
2013-02-11 12:22:00,64.4,26.8,30.12,NE,39,4.0,0.0,24,0.00,,,0.00,WeatherTracker,2013-02-11 20:22:00,
2013-02-11 12:27:00,64.6,28.0,30.12,North,5,5.0,0.0,25,0.00,,,0.00,WeatherTracker,2013-02-11 20:27:00,
2013-02-11 12:32:00,65.1,29.4,30.12,NE,48,3.0,0.0,26,0.00,,,0.00,WeatherTracker,2013-02-11 20:32:00,
2013-02-11 12:38:00,65.4,28.7,30.12,NE,39,3.0,0.0,25,0.00,,,0.00,WeatherTracker,2013-02-11 20:38:00,
2013-02-11 12:43:00,65.6,28.8,30.11,ENE,63,3.0,0.0,25,0.00,,,0.00,WeatherTracker,2013-02-11 20:43:00,
2013-02-11 12:48:00,65.7,27.9,30.11,NNE,20,2.0,0.0,24,0.00,,,0.00,WeatherTracker,2013-02-11 20:48:00,
2013-02-11 12:53:00,66.0,28.2,30.11,NNE,15,1.0,0.0,24,0.00,,,0.00,WeatherTracker,2013-02-11 20:53:00,
2013-02-11 12:58:00,66.4,28.5,30.11,NNE,14,3.0,0.0,24,0.00,,,0.00,WeatherTracker,2013-02-11 20:58:00,
2013-02-11 13:03:00,66.3,28.4,30.10,NE,55,2.0,0.0,24,0.00,,,0.00,WeatherTracker,2013-02-11 21:03:00,
2013-02-11 13:08:00,66.5,30.6,30.10,NW,326,4.0,0.0,26,0.00,,,0.00,WeatherTracker,2013-02-11 21:08:00,
2013-02-11 13:13:00,66.6,27.6,30.10,West,261,3.0,0.0,23,0.00,,,0.00,WeatherTracker,2013-02-11 21:13:00,
2013-02-11 13:18:00,66.5,29.6,30.10,SE,141,1.0,0.0,25,0.00,,,0.00,WeatherTracker,2013-02-11 21:18:00,
2013-02-11 13:23:00,66.9,29.9,30.10,WSW,248,3.0,0.0,25,0.00,,,0.00,WeatherTracker,2013-02-11 21:23:00,
2013-02-11 13:28:00,67.0,30.0,30.10,WSW,240,1.0,0.0,25,0.00,,,0.00,WeatherTracker,2013-02-11 21:28:00,
2013-02-11 13:33:00,67.1,30.1,30.10,SSW,192,3.0,0.0,25,0.00,,,0.00,WeatherTracker,2013-02-11 21:33:00,
2013-02-11 13:38:00,67.2,28.1,30.10,NE,56,2.0,0.0,23,0.00,,,0.00,WeatherTracker,2013-02-11 21:38:00,
2013-02-11 13:43:00,67.4,29.4,30.10,ENE,57,8.0,0.0,24,0.00,,,0.00,WeatherTracker,2013-02-11 21:43:00,
2013-02-11 13:48:00,67.3,28.2,30.09,North,5,1.0,0.0,23,0.00,,,0.00,WeatherTracker,2013-02-11 21:48:00,
2013-02-11 13:53:00,67.0,28.0,30.09,ENE,65,4.0,0.0,23,0.00,,,0.00,WeatherTracker,2013-02-11 21:53:00,
2013-02-11 13:58:00,67.0,29.0,30.09,North,9,2.0,0.0,24,0.00,,,0.00,WeatherTracker,2013-02-11 21:58:00,
2013-02-11 14:03:00,67.4,27.2,30.09,NNE,21,3.0,0.0,22,0.00,,,0.00,WeatherTracker,2013-02-11 22:03:00,
2013-02-11 14:08:00,67.3,26.0,30.09,ENE,71,3.0,0.0,21,0.00,,,0.00,WeatherTracker,2013-02-11 22:08:00,
2013-02-11 14:13:00,67.0,26.9,30.09,East,91,5.0,0.0,22,0.00,,,0.00,WeatherTracker,2013-02-11 22:13:00,
2013-02-11 14:18:00,66.9,26.8,30.09,ENE,68,3.0,0.0,22,0.00,,,0.00,WeatherTracker,2013-02-11 22:18:00,
2013-02-11 14:23:00,66.8,26.7,30.09,ENE,78,3.0,0.0,22,0.00,,,0.00,WeatherTracker,2013-02-11 22:23:00,
2013-02-11 14:28:00,66.6,27.6,30.09,North,5,2.0,0.0,23,0.00,,,0.00,WeatherTracker,2013-02-11 22:28:00,
2013-02-11 14:34:00,66.8,26.7,30.09,NNE,19,3.0,0.0,22,0.00,,,0.00,WeatherTracker,2013-02-11 22:34:00,
2013-02-11 14:39:00,66.9,26.8,30.09,North,9,6.0,0.0,22,0.00,,,0.00,WeatherTracker,2013-02-11 22:39:00,
2013-02-11 14:44:00,66.8,26.7,30.09,ENE,66,3.0,0.0,22,0.00,,,0.00,WeatherTracker,2013-02-11 22:44:00,
2013-02-11 14:49:00,66.6,27.6,30.09,NE,53,3.0,0.0,23,0.00,,,0.00,WeatherTracker,2013-02-11 22:49:00,
2013-02-11 14:54:00,66.4,26.4,30.09,ENE,74,8.0,0.0,22,0.00,,,0.00,WeatherTracker,2013-02-11 22:54:00,
2013-02-11 14:59:00,66.1,26.2,30.09,East,88,5.0,0.0,22,0.00,,,0.00,WeatherTracker,2013-02-11 22:59:00,
2013-02-11 15:04:00,66.1,26.2,30.09,ENE,73,3.0,0.0,22,0.00,,,0.00,WeatherTracker,2013-02-11 23:04:00,
2013-02-11 15:09:00,66.1,26.2,30.09,East,81,6.0,0.0,22,0.00,,,0.00,WeatherTracker,2013-02-11 23:09:00,
2013-02-11 15:14:00,66.0,27.1,30.09,ENE,71,7.0,0.0,23,0.00,,,0.00,WeatherTracker,2013-02-11 23:14:00,
2013-02-11 15:19:00,65.9,27.1,30.09,East,94,6.0,0.0,23,0.00,,,0.00,WeatherTracker,2013-02-11 23:19:00,
2013-02-11 15:24:00,66.1,27.2,30.09,ENE,59,2.0,0.0,23,0.00,,,0.00,WeatherTracker,2013-02-11 23:24:00,
2013-02-11 15:29:00,66.2,27.3,30.09,NE,34,1.0,0.0,23,0.00,,,0.00,WeatherTracker,2013-02-11 23:29:00,
2013-02-11 15:34:00,66.3,27.4,30.09,ENE,67,3.0,0.0,23,0.00,,,0.00,WeatherTracker,2013-02-11 23:34:00,
2013-02-11 15:39:00,66.2,27.3,30.09,ENE,63,3.0,0.0,23,0.00,,,0.00,WeatherTracker,2013-02-11 23:39:00,
2013-02-11 15:44:00,66.2,28.3,30.09,NNE,13,5.0,0.0,24,0.00,,,0.00,WeatherTracker,2013-02-11 23:44:00,
2013-02-11 15:49:00,66.2,27.3,30.09,ENE,61,3.0,0.0,23,0.00,,,0.00,WeatherTracker,2013-02-11 23:49:00,
2013-02-11 15:54:00,66.3,27.4,30.09,East,94,2.0,0.0,23,0.00,,,0.00,WeatherTracker,2013-02-11 23:54:00,
2013-02-11 15:59:00,66.2,27.3,30.09,NE,50,2.0,0.0,23,0.00,,,0.00,WeatherTracker,2013-02-11 23:59:00,
2013-02-11 16:04:00,66.0,27.1,30.09,NNE,29,4.0,0.0,23,0.00,,,0.00,WeatherTracker,2013-02-12 00:04:00,
2013-02-11 16:09:00,65.9,28.1,30.09,NE,34,5.0,0.0,24,0.00,,,0.00,WeatherTracker,2013-02-12 00:09:00,
2013-02-11 16:15:00,65.9,28.1,30.09,NE,34,4.0,0.0,24,0.00,,,0.00,WeatherTracker,2013-02-12 00:15:00,
2013-02-11 16:20:00,65.9,29.1,30.09,NNE,30,1.0,0.0,25,0.00,,,0.00,WeatherTracker,2013-02-12 00:20:00,
2013-02-11 16:25:00,65.6,28.8,30.09,East,89,2.0,0.0,25,0.00,,,0.00,WeatherTracker,2013-02-12 00:25:00,
2013-02-11 16:30:00,65.4,33.2,30.10,SE,144,1.0,0.0,30,0.00,,,0.00,WeatherTracker,2013-02-12 00:30:00,
2013-02-11 16:35:00,64.9,35.1,30.10,East,92,2.0,0.0,33,0.00,,,0.00,WeatherTracker,2013-02-12 00:35:00,
2013-02-11 16:40:00,64.2,35.2,30.10,SSW,209,1.0,0.0,34,0.00,,,0.00,WeatherTracker,2013-02-12 00:40:00,
2013-02-11 16:45:00,63.6,35.4,30.11,SSE,148,1.0,0.0,35,0.00,,,0.00,WeatherTracker,2013-02-12 00:45:00,
2013-02-11 16:50:00,63.2,35.1,30.11,SSE,156,3.0,0.0,35,0.00,,,0.00,WeatherTracker,2013-02-12 00:50:00,
2013-02-11 16:55:00,62.8,34.7,30.11,SSW,192,2.0,0.0,35,0.00,,,0.00,WeatherTracker,2013-02-12 00:55:00,
2013-02-11 17:00:00,62.4,37.1,30.11,SSW,194,0.0,0.0,39,0.00,,,0.00,WeatherTracker,2013-02-12 01:00:00,
2013-02-11 17:05:00,61.8,36.6,30.11,South,191,0.0,0.0,39,0.00,,,0.00,WeatherTracker,2013-02-12 01:05:00,
2013-02-11 17:10:00,61.3,36.8,30.11,South,178,1.0,0.0,40,0.00,,,0.00,WeatherTracker,2013-02-12 01:10:00,
2013-02-11 17:15:00,60.8,37.0,30.11,SSW,202,2.0,0.0,41,0.00,,,0.00,WeatherTracker,2013-02-12 01:15:00,
2013-02-11 17:20:00,60.3,36.5,30.11,South,173,2.0,0.0,41,0.00,,,0.00,WeatherTracker,2013-02-12 01:20:00,
2013-02-11 17:25:00,59.8,36.1,30.11,South,184,2.0,0.0,41,0.00,,,0.00,WeatherTracker,2013-02-12 01:25:00,
2013-02-11 17:30:00,59.4,36.3,30.11,SSW,213,2.0,0.0,42,0.00,,,0.00,WeatherTracker,2013-02-12 01:30:00,
2013-02-11 17:35:00,58.9,35.9,30.11,South,179,2.0,0.0,42,0.00,,,0.00,WeatherTracker,2013-02-12 01:35:00,
2013-02-11 17:40:00,58.4,36.0,30.12,South,179,0.0,0.0,43,0.00,,,0.00,WeatherTracker,2013-02-12 01:40:00,
2013-02-11 17:45:00,58.0,35.6,30.11,South,179,1.0,0.0,43,0.00,,,0.00,WeatherTracker,2013-02-12 01:45:00,
2013-02-11 17:50:00,57.6,35.3,30.11,South,179,0.0,0.0,43,0.00,,,0.00,WeatherTracker,2013-02-12 01:50:00,
2013-02-11 17:55:00,57.2,35.5,30.12,South,179,0.0,0.0,44,0.00,,,0.00,WeatherTracker,2013-02-12 01:55:00,
2013-02-11 18:00:00,56.8,35.7,30.12,South,179,0.0,0.0,45,0.00,,,0.00,WeatherTracker,2013-02-12 02:00:00,
2013-02-11 18:05:00,56.4,35.9,30.12,South,179,0.0,0.0,46,0.00,,,0.00,WeatherTracker,2013-02-12 02:05:00,
2013-02-11 18:10:00,56.0,36.1,30.12,South,179,0.0,0.0,47,0.00,,,0.00,WeatherTracker,2013-02-12 02:10:00,
2013-02-11 18:15:00,55.6,36.2,30.12,South,179,0.0,0.0,48,0.00,,,0.00,WeatherTracker,2013-02-12 02:15:00,
2013-02-11 18:20:00,55.1,36.3,30.13,South,179,0.0,0.0,49,0.00,,,0.00,WeatherTracker,2013-02-12 02:20:00,
2013-02-11 18:25:00,54.6,36.3,30.13,South,179,0.0,0.0,50,0.00,,,0.00,WeatherTracker,2013-02-12 02:25:00,
2013-02-11 18:30:00,54.2,36.5,30.13,South,179,0.0,0.0,51,0.00,,,0.00,WeatherTracker,2013-02-12 02:30:00,
2013-02-11 18:35:00,53.7,36.5,30.13,South,179,0.0,0.0,52,0.00,,,0.00,WeatherTracker,2013-02-12 02:35:00,
2013-02-11 18:40:00,53.2,36.5,30.13,South,179,0.0,0.0,53,0.00,,,0.00,WeatherTracker,2013-02-12 02:40:00,
2013-02-11 18:46:00,52.7,36.5,30.14,South,179,0.0,0.0,54,0.00,,,0.00,WeatherTracker,2013-02-12 02:46:00,
2013-02-11 18:51:00,52.2,36.5,30.14,South,179,0.0,0.0,55,0.00,,,0.00,WeatherTracker,2013-02-12 02:51:00,
2013-02-11 18:56:00,51.8,36.2,30.14,South,179,0.0,0.0,55,0.00,,,0.00,WeatherTracker,2013-02-12 02:56:00,
2013-02-11 19:01:00,51.4,36.2,30.14,South,179,0.0,0.0,56,0.00,,,0.00,WeatherTracker,2013-02-12 03:01:00,
2013-02-11 19:06:00,51.1,36.0,30.14,South,179,0.0,0.0,56,0.00,,,0.00,WeatherTracker,2013-02-12 03:06:00,
2013-02-11 19:11:00,50.7,36.0,30.14,South,179,0.0,0.0,57,0.00,,,0.00,WeatherTracker,2013-02-12 03:11:00,
2013-02-11 19:16:00,50.4,36.2,30.14,South,179,0.0,0.0,58,0.00,,,0.00,WeatherTracker,2013-02-12 03:16:00,
2013-02-11 19:21:00,50.0,35.8,30.14,South,179,0.0,0.0,58,0.00,,,0.00,WeatherTracker,2013-02-12 03:21:00,
2013-02-11 19:26:00,49.7,36.0,30.14,South,179,0.0,0.0,59,0.00,,,0.00,WeatherTracker,2013-02-12 03:26:00,
2013-02-11 19:31:00,49.4,36.1,30.14,South,179,0.0,0.0,60,0.00,,,0.00,WeatherTracker,2013-02-12 03:31:00,
2013-02-11 19:36:00,49.0,36.1,30.14,South,179,0.0,0.0,61,0.00,,,0.00,WeatherTracker,2013-02-12 03:36:00,
2013-02-11 19:41:00,48.7,36.3,30.15,South,179,0.0,0.0,62,0.00,,,0.00,WeatherTracker,2013-02-12 03:41:00,
2013-02-11 19:46:00,48.5,36.1,30.15,South,179,0.0,0.0,62,0.00,,,0.00,WeatherTracker,2013-02-12 03:46:00,
2013-02-11 19:51:00,48.3,36.3,30.15,South,179,0.0,0.0,63,0.00,,,0.00,WeatherTracker,2013-02-12 03:51:00,
2013-02-11 19:56:00,48.0,36.0,30.15,South,179,0.0,0.0,63,0.00,,,0.00,WeatherTracker,2013-02-12 03:56:00,
2013-02-11 20:01:00,47.8,36.2,30.15,South,179,0.0,0.0,64,0.00,,,0.00,WeatherTracker,2013-02-12 04:01:00,
2013-02-11 20:06:00,47.5,35.9,30.15,South,179,0.0,0.0,64,0.00,,,0.00,WeatherTracker,2013-02-12 04:06:00,
2013-02-11 20:11:00,47.2,36.0,30.16,South,179,0.0,0.0,65,0.00,,,0.00,WeatherTracker,2013-02-12 04:11:00,
2013-02-11 20:17:00,46.9,36.1,30.16,South,179,0.0,0.0,66,0.00,,,0.00,WeatherTracker,2013-02-12 04:17:00,
2013-02-11 20:22:00,46.7,36.0,30.16,South,179,0.0,0.0,66,0.00,,,0.00,WeatherTracker,2013-02-12 04:22:00,
2013-02-11 20:27:00,46.4,36.0,30.16,South,179,0.0,0.0,67,0.00,,,0.00,WeatherTracker,2013-02-12 04:27:00,
2013-02-11 20:32:00,46.1,35.8,30.16,South,179,0.0,0.0,67,0.00,,,0.00,WeatherTracker,2013-02-12 04:32:00,
2013-02-11 20:37:00,45.8,35.8,30.16,South,179,0.0,0.0,68,0.00,,,0.00,WeatherTracker,2013-02-12 04:37:00,
2013-02-11 20:42:00,45.6,35.7,30.16,South,179,0.0,0.0,68,0.00,,,0.00,WeatherTracker,2013-02-12 04:42:00,
2013-02-11 20:47:00,45.4,35.8,30.16,South,179,0.0,0.0,69,0.00,,,0.00,WeatherTracker,2013-02-12 04:47:00,
2013-02-11 20:52:00,45.1,35.5,30.16,South,179,0.0,0.0,69,0.00,,,0.00,WeatherTracker,2013-02-12 04:52:00,
2013-02-11 20:57:00,44.9,35.7,30.16,South,179,0.0,0.0,70,0.00,,,0.00,WeatherTracker,2013-02-12 04:57:00,
2013-02-11 21:00:00,44.7,35.5,30.16,South,179,0.0,0.0,70,0.00,,,0.00,WeatherTracker,2013-02-12 05:00:00,
2013-02-11 21:05:00,44.5,35.3,30.16,South,179,0.0,0.0,70,0.00,,,0.00,WeatherTracker,2013-02-12 05:05:00,
2013-02-11 21:10:00,44.2,35.0,30.16,South,179,0.0,0.0,70,0.00,,,0.00,WeatherTracker,2013-02-12 05:10:00,
2013-02-11 21:15:00,44.0,35.2,30.16,South,179,2.0,0.0,71,0.00,,,0.00,WeatherTracker,2013-02-12 05:15:00,
2013-02-11 21:20:00,44.0,35.2,30.16,South,179,0.0,0.0,71,0.00,,,0.00,WeatherTracker,2013-02-12 05:20:00,
2013-02-11 21:25:00,43.9,35.1,30.16,South,179,0.0,0.0,71,0.00,,,0.00,WeatherTracker,2013-02-12 05:25:00,
2013-02-11 21:30:00,43.8,35.0,30.16,South,179,0.0,0.0,71,0.00,,,0.00,WeatherTracker,2013-02-12 05:30:00,
2013-02-11 21:35:00,43.6,35.2,30.16,South,179,0.0,0.0,72,0.00,,,0.00,WeatherTracker,2013-02-12 05:35:00,
2013-02-11 21:40:00,43.4,35.0,30.16,South,179,0.0,0.0,72,0.00,,,0.00,WeatherTracker,2013-02-12 05:40:00,
2013-02-11 21:45:00,43.2,34.8,30.16,South,179,0.0,0.0,72,0.00,,,0.00,WeatherTracker,2013-02-12 05:45:00,
2013-02-11 21:51:00,42.9,34.9,30.16,South,179,0.0,0.0,73,0.00,,,0.00,WeatherTracker,2013-02-12 05:51:00,
2013-02-11 21:56:00,42.6,34.6,30.17,South,179,0.0,0.0,73,0.00,,,0.00,WeatherTracker,2013-02-12 05:56:00,
2013-02-11 22:01:00,42.4,34.4,30.16,South,179,0.0,0.0,73,0.00,,,0.00,WeatherTracker,2013-02-12 06:01:00,
2013-02-11 22:06:00,42.1,34.4,30.16,South,179,0.0,0.0,74,0.00,,,0.00,WeatherTracker,2013-02-12 06:06:00,
2013-02-11 22:11:00,41.9,34.2,30.17,South,179,0.0,0.0,74,0.00,,,0.00,WeatherTracker,2013-02-12 06:11:00,
2013-02-11 22:16:00,41.6,33.9,30.17,South,179,0.0,0.0,74,0.00,,,0.00,WeatherTracker,2013-02-12 06:16:00,
2013-02-11 22:21:00,41.3,34.3,30.17,South,179,0.0,0.0,76,0.00,,,0.00,WeatherTracker,2013-02-12 06:21:00,
2013-02-11 22:26:00,41.1,34.1,30.17,South,179,0.0,0.0,76,0.00,,,0.00,WeatherTracker,2013-02-12 06:26:00,
2013-02-11 22:31:00,40.9,33.9,30.17,South,179,0.0,0.0,76,0.00,,,0.00,WeatherTracker,2013-02-12 06:31:00,
2013-02-11 22:36:00,40.7,34.1,30.17,South,179,0.0,0.0,77,0.00,,,0.00,WeatherTracker,2013-02-12 06:36:00,
2013-02-11 22:41:00,40.6,34.0,30.17,South,179,0.0,0.0,77,0.00,,,0.00,WeatherTracker,2013-02-12 06:41:00,
2013-02-11 22:46:00,40.4,34.1,30.17,South,179,0.0,0.0,78,0.00,,,0.00,WeatherTracker,2013-02-12 06:46:00,
2013-02-11 22:51:00,40.3,33.7,30.17,South,179,0.0,0.0,77,0.00,,,0.00,WeatherTracker,2013-02-12 06:51:00,
2013-02-11 22:56:00,40.2,33.9,30.17,South,179,0.0,0.0,78,0.00,,,0.00,WeatherTracker,2013-02-12 06:56:00,
2013-02-11 23:01:00,40.2,33.6,30.17,South,179,0.0,0.0,77,0.00,,,0.00,WeatherTracker,2013-02-12 07:01:00,
2013-02-11 23:06:00,40.1,33.5,30.17,South,179,0.0,0.0,77,0.00,,,0.00,WeatherTracker,2013-02-12 07:06:00,
2013-02-11 23:11:00,40.1,33.8,30.17,South,179,0.0,0.0,78,0.00,,,0.00,WeatherTracker,2013-02-12 07:11:00,
2013-02-11 23:16:00,40.0,33.4,30.17,South,179,0.0,0.0,77,0.00,,,0.00,WeatherTracker,2013-02-12 07:16:00,
2013-02-11 23:22:00,39.8,33.5,30.17,South,179,0.0,0.0,78,0.00,,,0.00,WeatherTracker,2013-02-12 07:22:00,
2013-02-11 23:27:00,39.7,33.4,30.17,South,179,0.0,0.0,78,0.00,,,0.00,WeatherTracker,2013-02-12 07:27:00,
2013-02-11 23:32:00,39.6,33.3,30.17,South,179,0.0,0.0,78,0.00,,,0.00,WeatherTracker,2013-02-12 07:32:00,
2013-02-11 23:37:00,39.5,33.2,30.17,South,179,0.0,0.0,78,0.00,,,0.00,WeatherTracker,2013-02-12 07:37:00,
2013-02-11 23:42:00,39.3,33.0,30.18,South,179,0.0,0.0,78,0.00,,,0.00,WeatherTracker,2013-02-12 07:42:00,
2013-02-11 23:47:00,39.2,32.9,30.18,South,179,0.0,0.0,78,0.00,,,0.00,WeatherTracker,2013-02-12 07:47:00,
2013-02-11 23:52:00,39.1,32.8,30.18,South,179,0.0,0.0,78,0.00,,,0.00,WeatherTracker,2013-02-12 07:52:00,
2013-02-11 23:57:00,39.1,32.8,30.18,South,179,0.0,0.0,78,0.00,,,0.00,WeatherTracker,2013-02-12 07:57:00,